GFSFLT2_925_thetae_000.txt.gz
Theta_e
336 333 331 328 326 323 321 320 319 319 318 317 320 321 319 317 318 320 319 319 318 316 317 317 315 314 315 315 315 316 318 323
324 323 320 320 321 320 318 317 318 319 318 325 325 324 322 323 323 322 320 321 319 319 319 319 318 317 317 315 314 315 318 322
329 328 323 316 317 317 317 318 322 324 327 328 327 323 324 325 325 324 322 322 321 320 320 319 319 318 317 315 309 313 316 318
332 330 326 323 322 318 325 325 327 327 329 329 327 326 326 326 326 323 321 321 319 320 320 320 319 318 317 315 311 308 310 314
332 329 329 327 326 326 328 328 328 327 328 327 327 327 327 323 323 318 317 317 317 318 319 319 318 318 318 316 314 311 309 309
329 327 329 329 327 327 328 329 330 329 328 327 326 326 323 320 319 318 318 318 318 317 317 317 317 318 318 318 317 315 313 311
329 327 329 327 325 327 328 328 329 329 328 327 322 323 321 320 320 320 319 320 320 319 318 318 318 318 318 318 318 318 316 314
330 324 326 327 328 327 327 326 325 327 326 324 319 319 321 321 321 319 317 318 318 318 319 318 317 318 319 319 319 319 317 315
329 330 331 326 329 328 327 321 323 324 323 321 321 321 321 319 315 313 313 314 316 316 316 317 316 313 311 311 312 314 316 317
331 325 324 328 328 327 328 320 321 320 321 318 316 316 316 315 314 314 312 312 313 314 313 312 311 311 310 310 309 311 313 314
331 325 329 325 326 324 321 320 320 317 316 314 313 314 313 312 312 312 311 312 312 311 310 308 307 307 307 306 305 305 306 308
331 326 326 326 323 322 319 316 314 313 313 313 312 311 311 311 311 310 311 311 310 308 307 306 305 306 305 305 304 304 306 311
327 327 325 318 315 316 314 313 313 312 311 311 311 311 311 310 309 309 308 308 306 305 305 305 304 304 304 304 304 303 305 305
315 315 315 315 315 314 313 312 312 312 312 312 311 309 307 307 306 305 305 305 305 304 303 304 305 305 306 306 303 304 304 305
313 313 313 312 312 312 311 311 312 312 311 310 309 307 305 304 303 302 302 302 302 302 302 302 304 305 306 305 303 302 301 304
313 313 312 312 312 311 311 311 311 308 306 307 307 304 303 302 301 301 301 301 301 301 301 301 301 303 303 303 302 301 301 301
313 313 312 312 311 311 311 310 306 306 307 305 304 302 301 300 300 300 301 300 300 299 300 301 300 301 300 300 299 299 299 298
313 313 313 311 311 310 310 307 306 306 303 302 301 301 300 300 300 300 299 299 298 297 297 297 296 296 296 297 297 298 297 297
313 313 313 312 311 309 308 306 304 302 302 303 302 300 300 299 300 299 299 298 297 297 296 294 293 293 294 294 295 295 295 295
312 311 310 310 306 304 303 303 303 304 304 303 301 300 300 299 299 298 297 294 293 292 292 292 291 290 291 292 292 293 294 293

GFSFLT2_925_thetae_006.txt.gz
Theta_e
338 336 335 333 334 331 327 324 320 318 317 317 318 314 318 319 318 317 317 316 316 316 315 315 315 315 315 315 312 309 308 311
342 337 336 335 332 327 323 321 318 318 317 321 321 321 322 322 320 319 318 317 317 317 316 316 316 316 316 315 315 315 313 312
338 337 334 329 327 323 321 319 318 317 321 323 322 323 323 323 322 321 319 318 317 318 318 318 317 317 317 317 316 316 315 315
335 331 327 326 323 319 317 317 318 322 325 324 324 324 324 323 321 319 318 317 318 318 318 319 319 318 318 317 318 317 317 316
327 324 322 320 318 317 317 320 322 326 327 326 325 325 324 320 318 317 317 318 318 319 319 318 318 318 318 317 317 318 318 318
324 323 319 317 317 318 320 324 325 325 326 325 324 324 322 319 318 318 319 319 318 317 317 317 318 317 316 316 315 315 317 317
327 325 321 320 319 322 324 325 327 327 327 326 325 325 323 319 320 320 318 316 315 314 313 314 315 315 314 313 312 310 309 310
329 328 325 323 325 323 324 326 328 328 328 327 327 324 323 320 320 315 312 311 311 311 312 312 312 311 310 309 306 305 303 303
330 330 329 325 326 325 326 327 327 328 329 329 326 322 321 316 313 311 310 310 310 311 310 309 308 307 306 305 304 303 302 301
329 329 328 327 327 326 323 323 325 322 319 316 315 314 312 311 310 310 309 309 309 307 306 305 305 304 303 302 302 301 300 300
329 328 328 325 323 325 321 315 314 313 313 312 311 311 310 310 310 308 308 307 306 304 303 302 302 302 301 300 300 299 300 305
330 327 326 324 323 321 311 312 312 313 312 311 310 310 309 307 306 306 305 305 304 302 301 300 300 300 297 299 296 299 301 304
327 327 323 317 314 314 313 313 312 311 310 308 307 306 305 305 304 303 302 301 300 299 298 298 298 300 300 298 297 301 300 300
319 317 316 315 315 315 316 314 311 309 306 305 304 303 303 302 301 300 299 299 298 297 296 296 298 300 301 301 299 300 301 298
313 313 312 312 311 311 311 310 310 308 305 303 302 302 301 300 299 300 300 298 298 297 297 296 298 298 299 300 298 298 297 298
311 311 311 311 310 310 310 310 309 306 304 301 302 302 301 302 302 301 300 298 298 297 297 296 297 296 297 296 295 296 296 296
310 310 310 310 310 309 309 308 305 304 302 303 303 303 302 301 301 301 299 298 297 296 296 296 294 293 293 293 294 293 295 294
310 311 310 309 308 307 307 306 304 303 303 303 303 302 302 301 300 299 298 296 295 294 292 291 290 289 289 290 291 291 291 292
309 308 305 304 304 303 303 303 303 302 302 302 302 301 301 300 299 297 295 293 293 292 290 290 289 288 288 287 288 288 289 289
305 303 302 303 303 302 302 302 301 301 301 301 301 300 300 299 298 296 294 296 292 291 289 289 288 288 288 288 288 288 288 286

GFSFLT2_925_thetae_009.txt.gz
Theta_e
338 337 336 335 333 332 330 325 319 318 317 317 314 316 318 317 317 317 316 317 316 316 315 315 315 316 316 315 315 315 314 313
337 337 336 333 332 332 327 323 319 318 317 319 317 319 320 319 318 317 317 316 316 316 316 317 316 316 317 317 316 315 316 315
336 339 334 334 333 329 325 321 319 318 319 321 321 321 322 321 320 318 317 316 316 317 317 318 318 318 317 317 318 317 317 317
336 339 337 335 331 326 323 321 319 319 322 322 322 323 323 323 321 318 317 317 317 318 318 318 318 319 318 317 316 316 317 317
338 339 334 331 329 325 322 320 320 323 325 325 325 325 325 322 319 317 317 318 319 318 318 318 318 317 316 314 313 314 316 317
332 331 329 328 325 323 322 321 322 325 327 327 326 326 325 320 318 318 319 318 316 314 313 313 314 315 313 312 312 311 310 309
328 328 326 324 323 322 322 324 325 327 327 328 327 326 324 319 319 318 315 312 311 311 311 312 312 311 310 310 307 305 305 306
328 327 325 324 324 324 324 325 326 326 326 325 325 323 322 320 316 311 311 310 310 310 310 310 309 308 307 306 303 303 303 302
328 327 326 324 325 325 319 320 319 321 324 324 324 320 317 313 312 312 311 310 309 309 308 306 306 305 305 304 303 302 303 301
328 328 326 326 325 322 322 321 321 320 318 314 312 313 313 310 310 309 308 307 307 307 305 306 305 304 304 304 303 303 303 306
327 328 326 325 324 323 323 319 316 314 313 311 311 310 309 308 307 306 306 306 305 303 303 302 304 302 300 302 300 300 305 305
327 327 324 323 324 324 316 312 311 312 311 309 308 307 306 305 305 304 303 302 301 300 300 301 301 300 298 300 299 300 305 305
327 325 324 325 323 313 312 312 312 310 309 308 307 305 304 303 302 300 299 300 300 299 298 298 299 300 299 299 298 302 303 301
325 323 320 317 315 314 314 314 310 308 306 305 304 303 302 300 301 302 302 300 299 298 297 299 299 300 298 298 300 299 299 301
317 315 314 313 313 312 311 310 309 307 304 303 302 303 303 302 301 301 301 300 299 298 299 299 299 298 299 297 298 298 298 297
311 311 310 309 309 309 309 309 309 305 302 303 303 302 302 301 301 300 300 299 298 298 297 296 296 295 295 296 296 296 296 295
308 308 308 308 308 308 308 307 305 303 303 303 302 302 302 301 300 300 299 297 296 295 294 293 293 292 292 292 292 292 292 292
309 308 306 305 305 303 303 303 302 302 302 302 302 302 302 301 300 299 298 296 294 292 291 290 291 290 290 290 289 289 289 290
304 304 303 303 303 303 302 302 301 301 301 300 300 299 298 299 299 298 296 293 294 293 292 289 290 290 289 289 289 289 289 289
303 303 302 301 300 298 297 296 295 293 292 291 292 293 294 294 298 296 294 295 292 292 292 291 291 290 290 290 289 289 290 289

GFSFLT2_925_thetae_012.txt.gz
Theta_e
339 338 336 335 336 333 331 327 322 319 319 316 313 316 317 317 317 317 317 317 316 316 316 316 316 317 317 317 316 315 318 316
339 338 338 338 336 333 331 325 321 320 319 317 316 319 318 318 318 317 317 317 317 317 317 317 317 317 317 317 317 318 318 317
339 337 337 336 335 334 329 324 321 319 322 320 322 325 325 325 321 317 316 316 317 317 317 318 318 321 319 317 317 317 317 317
338 338 338 336 332 331 330 327 326 327 328 328 327 329 328 326 323 317 317 317 318 318 318 319 321 319 318 317 316 317 316 317
337 334 334 334 331 329 326 325 326 328 330 330 329 330 329 327 325 324 324 320 321 320 320 319 319 318 316 316 316 314 314 314
335 334 334 332 328 325 325 326 328 329 330 331 330 329 328 326 324 323 323 321 319 318 317 318 318 316 316 315 314 312 312 312
333 332 331 330 327 326 327 329 330 330 331 328 325 326 327 326 324 322 319 317 317 316 316 315 314 313 313 312 311 310 311 310
332 330 329 327 326 327 328 326 321 322 323 325 324 321 319 324 320 317 317 316 315 314 313 312 312 311 310 311 309 309 308 309
332 330 328 328 328 324 321 322 320 320 321 322 323 322 321 315 317 316 315 313 312 311 311 310 310 310 309 309 308 308 307 308
331 329 328 328 322 322 320 318 322 321 320 314 313 313 313 310 313 313 311 310 309 310 309 309 309 308 307 306 306 306 305 308
332 330 330 327 322 323 322 322 320 318 315 313 312 310 311 312 311 310 309 309 308 308 307 306 306 306 304 303 304 304 304 305
332 330 329 327 324 323 322 316 315 314 313 311 310 310 309 309 309 308 307 306 306 306 305 305 304 304 304 303 304 303 303 305
331 329 328 326 324 321 317 317 317 313 311 309 309 308 307 307 306 306 306 306 306 305 304 304 303 303 302 302 301 300 303 303
329 328 327 325 322 319 319 319 316 311 309 308 307 306 306 305 306 305 305 304 304 304 303 302 301 302 302 301 302 301 300 302
324 322 320 319 318 317 316 315 312 311 309 307 306 306 305 305 305 304 304 303 302 302 302 302 301 300 300 300 302 301 299 298
318 317 316 314 313 314 314 314 314 310 307 307 306 306 305 305 304 303 302 301 301 301 300 300 298 298 297 297 296 296 298 298
313 312 311 312 312 312 312 310 308 307 307 306 306 306 305 304 303 302 301 301 301 301 299 297 297 297 296 295 295 294 293 294
312 311 310 310 309 309 308 307 306 306 305 303 301 299 298 297 297 300 301 301 300 298 297 297 296 294 293 292 292 292 292 292
310 309 308 308 307 306 305 303 301 299 298 296 296 295 295 295 296 297 299 299 298 298 296 296 294 293 292 291 291 291 291 291
309 308 307 305 302 300 299 297 297 296 296 295 295 294 294 295 297 298 299 299 297 296 296 295 293 292 291 291 291 290 290 290

GFSFLT2_925_thetae_015.txt.gz
Theta_e
338 336 335 334 334 333 331 326 321 320 316 314 314 316 316 316 316 317 317 317 317 317 317 317 317 317 317 316 316 318 320 319
337 337 337 338 336 333 329 323 319 318 318 314 318 317 317 317 320 317 317 317 317 317 317 317 317 319 319 316 318 319 318 318
338 337 336 335 336 331 325 320 318 318 322 319 325 327 326 324 322 318 317 317 317 318 318 317 318 322 321 317 317 317 317 316
336 337 336 334 330 330 328 325 326 327 329 328 327 328 327 322 323 317 317 318 320 318 317 319 321 320 319 317 317 316 315 315
337 338 337 330 328 327 325 325 327 330 330 329 329 328 329 327 325 325 325 324 323 322 321 321 321 320 318 318 316 315 314 313
336 336 335 329 327 325 325 327 328 328 330 330 330 328 328 327 324 325 324 323 322 321 320 320 319 317 316 316 314 313 312 312
332 332 330 329 326 327 329 330 330 330 331 328 328 329 328 325 324 324 323 321 321 320 319 318 315 314 314 313 313 312 311 311
331 330 329 327 328 330 329 326 324 321 321 324 324 324 322 319 321 322 320 319 318 316 315 314 313 314 313 312 311 311 310 310
331 330 329 328 330 327 322 322 320 319 323 323 324 325 321 321 319 318 316 315 313 312 312 312 311 311 311 310 309 309 309 309
333 330 329 330 328 323 322 321 320 321 319 316 317 317 317 314 313 315 314 312 312 312 311 310 309 309 308 308 307 306 306 307
334 332 331 329 327 322 325 324 321 321 318 316 315 314 314 315 314 313 312 311 310 310 309 309 308 308 307 306 306 305 306 305
334 333 332 328 327 326 326 324 321 319 318 315 314 313 312 312 312 311 310 310 309 309 309 308 306 305 305 305 304 303 302 302
332 331 330 329 329 327 323 320 319 318 315 313 312 311 310 310 310 310 309 309 308 307 307 306 303 302 302 303 303 302 302 303
331 331 330 329 326 322 320 320 319 315 313 312 310 310 309 309 309 309 308 307 306 305 304 304 302 302 302 302 303 301 301 301
331 329 327 324 321 321 321 319 315 314 313 311 310 309 309 308 307 307 306 305 303 302 302 303 302 301 300 300 301 301 299 298
325 323 321 321 318 317 317 317 316 314 312 311 310 309 308 307 305 304 304 303 302 301 301 301 300 300 299 299 298 298 299 299
320 318 315 316 316 316 315 314 312 310 310 309 307 305 301 300 299 299 300 301 302 302 301 300 299 299 298 297 296 296 295 295
316 315 315 314 314 313 312 310 308 307 303 301 300 298 298 297 297 298 298 300 301 301 300 299 300 298 296 295 295 294 293 293
315 314 313 312 310 308 306 303 301 300 299 298 298 297 297 297 297 298 299 299 300 299 299 299 298 296 295 294 293 293 293 292
314 313 312 309 305 303 301 299 299 299 298 298 297 297 296 296 296 298 299 299 300 298 298 298 297 295 294 293 293 292 292 292

GFSFLT2_925_thetae_018.txt.gz
Theta_e
324 331 334 334 332 331 326 319 317 315 313 312 315 315 315 315 315 316 316 316 316 317 317 317 316 319 319 316 317 318 317 320
333 333 333 334 331 328 321 317 317 316 312 316 315 316 316 323 325 318 316 316 316 317 317 316 317 317 320 317 317 317 317 319
335 336 334 332 330 325 319 316 316 319 317 324 326 327 327 326 323 315 315 316 317 317 316 318 321 322 321 319 318 316 315 316
335 335 334 334 328 327 322 323 327 327 328 327 329 326 325 320 325 324 323 324 321 323 321 321 321 320 319 318 317 315 314 315
336 335 334 331 329 327 326 327 328 328 328 330 328 327 328 327 327 327 325 325 324 322 322 322 320 319 317 316 315 314 313 312
335 333 332 328 327 326 327 328 331 331 331 331 331 330 329 327 326 325 324 322 321 321 320 318 317 314 315 314 314 313 312 311
334 334 330 326 326 328 330 330 329 326 327 326 325 326 327 325 320 319 321 321 320 319 316 314 313 313 313 313 312 312 311 311
332 331 329 328 330 330 327 323 319 320 325 322 322 326 327 322 322 321 320 318 315 313 312 313 312 311 311 311 310 309 309 309
331 330 328 329 331 328 321 320 320 319 319 320 321 325 323 321 319 316 316 313 313 312 312 311 310 309 309 308 308 308 307 306
331 330 327 331 329 325 322 322 321 320 320 318 318 318 316 315 316 315 314 312 312 311 310 310 309 309 308 307 307 306 305 304
331 330 330 330 327 323 324 323 323 322 319 317 316 315 315 314 314 313 311 311 310 310 310 309 309 307 305 304 305 304 305 303
333 331 332 329 327 324 327 326 323 320 319 316 315 313 313 313 312 311 311 310 309 308 308 308 307 304 303 302 304 304 303 302
333 333 330 329 328 328 327 323 320 318 315 314 313 311 310 310 311 310 309 309 308 306 305 304 305 304 302 303 302 302 301 300
333 331 329 329 329 326 322 321 320 316 314 312 311 311 310 309 309 308 308 307 306 304 302 303 304 303 302 301 300 300 300 299
331 330 329 330 326 322 322 319 316 314 314 312 311 310 309 309 308 306 305 305 304 303 302 303 303 301 301 300 299 299 299 299
331 331 329 323 321 321 320 317 315 314 312 311 311 310 307 303 301 299 299 300 302 303 302 302 301 301 300 299 298 297 296 295
327 323 322 320 318 318 317 315 313 311 309 306 303 301 299 299 298 298 298 298 299 301 302 302 300 300 299 298 296 296 295 294
320 317 317 317 316 315 313 310 308 304 301 300 300 299 298 298 298 297 298 299 299 301 301 300 300 299 298 296 295 295 294 293
317 316 316 315 313 310 306 304 302 301 300 299 299 298 298 297 297 297 298 299 300 300 300 298 299 298 297 295 294 294 293 293
316 315 314 312 308 304 302 302 301 299 299 299 298 297 297 296 296 296 297 299 300 300 298 299 298 297 296 295 294 293 292 292

GFSFLT2_925_thetae_024.txt.gz
Theta_e
331 328 325 327 322 319 314 312 309 309 312 312 313 313 313 313 314 315 315 315 314 315 317 320 320 319 318 317 315 314 318 315
325 327 329 326 320 316 314 310 310 313 313 312 312 313 314 313 314 314 315 315 319 320 319 321 320 319 319 318 316 314 313 313
321 328 329 324 318 315 313 310 314 314 314 314 323 323 323 315 314 316 318 318 321 321 321 321 320 318 317 316 315 314 313 312
320 326 329 323 317 316 314 313 316 319 323 324 326 325 324 323 317 318 323 323 322 322 321 318 315 315 314 313 314 313 312 311
329 330 329 320 315 317 315 317 323 325 326 327 327 325 325 325 324 324 324 321 319 317 316 314 314 313 313 313 312 311 311 311
328 331 326 318 318 324 327 326 327 330 329 328 328 326 325 325 321 322 321 318 317 315 314 313 312 310 310 309 309 308 307 306
330 332 325 321 323 328 329 329 330 330 329 329 328 327 327 322 320 319 319 318 315 313 312 311 311 310 310 309 308 306 307 305
330 328 327 325 326 327 329 330 329 327 326 327 327 325 323 321 320 318 316 314 312 312 311 310 309 309 308 307 306 305 305 304
332 330 330 327 326 329 329 329 326 322 320 319 320 322 323 319 317 314 312 311 311 310 310 309 309 308 307 304 303 302 303 303
334 332 328 328 329 328 324 320 319 319 319 320 322 320 315 316 314 312 310 310 310 309 308 308 306 305 304 304 302 303 301 301
329 329 328 329 328 323 320 321 320 318 316 315 315 314 315 313 311 310 310 309 309 308 307 305 303 303 303 302 302 301 300 299
329 329 328 327 325 322 322 322 318 316 315 313 313 313 313 311 311 310 309 309 308 307 305 303 302 302 303 301 301 300 299 298
328 329 329 328 323 323 323 322 318 315 315 313 312 311 311 311 310 309 308 307 305 304 303 302 301 302 302 301 300 299 298 297
328 328 329 328 327 324 324 323 318 315 312 311 310 310 310 309 309 308 306 304 303 303 302 301 302 301 300 298 295 298 297 297
328 329 329 329 329 324 325 321 315 312 311 311 310 309 309 308 306 304 301 299 298 298 301 301 301 300 299 299 295 294 294 295
329 328 329 329 326 325 325 318 313 312 311 311 309 309 308 304 300 299 298 297 297 298 299 301 301 300 299 298 297 295 291 291
330 329 329 328 323 327 324 318 314 312 311 310 308 302 300 298 298 297 296 296 298 299 300 300 300 299 299 297 297 295 293 291
330 330 329 328 328 325 323 318 313 311 309 304 300 298 298 297 297 296 295 297 298 299 299 299 298 298 297 297 295 294 293 292
329 328 326 327 327 318 317 314 312 310 306 302 299 298 297 296 296 295 295 296 297 299 299 297 297 297 297 296 296 295 293 292
324 320 315 316 318 315 311 309 309 307 302 300 298 297 296 296 295 295 295 295 295 297 298 297 297 296 296 296 295 295 293 292

GFSFLT2_925_thetae_030.txt.gz
Theta_e
334 330 329 323 317 315 312 313 314 317 317 315 313 313 313 314 315 314 315 318 320 320 319 319 318 317 316 315 314 313 312 313
327 325 320 318 317 317 313 312 313 315 313 312 312 313 314 315 315 316 317 318 319 320 319 318 317 316 315 314 313 313 312 312
320 318 320 323 318 316 311 316 315 312 312 313 314 315 315 315 316 317 319 320 320 320 319 317 316 314 313 313 313 312 311 312
320 319 318 317 319 313 310 312 312 313 314 314 314 314 315 316 318 319 321 321 321 318 317 315 314 313 312 311 311 310 310 311
320 320 320 320 317 313 312 314 314 315 315 319 319 316 316 319 322 322 321 319 317 316 315 313 312 311 309 308 307 307 306 307
320 320 319 321 322 315 313 315 314 317 321 324 323 323 321 320 322 320 318 315 315 314 313 311 310 309 308 307 306 305 305 305
323 326 325 325 320 317 315 316 317 319 323 324 324 324 324 323 322 318 317 315 314 312 311 310 309 308 307 305 303 303 303 303
326 327 329 325 320 318 316 320 323 324 326 326 325 325 323 320 318 317 315 313 312 311 310 309 308 307 305 303 301 301 301 302
324 328 330 326 321 319 319 328 329 328 327 326 324 323 321 319 318 316 313 311 310 310 309 308 307 305 303 301 301 300 300 300
323 328 330 327 321 323 326 328 328 327 327 326 325 323 320 319 316 313 311 310 309 308 308 307 305 301 301 301 300 299 298 299
326 327 330 328 322 323 328 327 325 324 323 322 322 322 318 315 312 311 309 309 308 308 306 302 300 300 301 300 299 298 297 297
329 329 330 327 323 326 327 325 323 319 319 320 320 316 313 312 311 309 308 308 307 303 301 300 299 300 301 301 299 297 296 296
330 330 330 327 326 326 323 321 319 318 318 317 315 315 312 311 310 308 307 306 303 301 300 300 300 300 300 299 297 296 296 295
330 330 330 328 327 326 324 319 318 317 315 314 313 313 310 309 308 307 305 302 298 298 298 299 300 300 299 297 294 296 296 294
330 330 331 330 326 323 320 319 317 314 312 311 311 310 309 308 307 303 299 298 296 296 296 297 299 299 299 298 295 294 293 295
329 330 330 327 325 323 321 320 315 313 312 310 308 308 308 305 301 299 298 296 295 295 296 298 299 299 298 298 297 296 293 293
328 328 327 326 326 325 322 319 315 314 310 308 308 306 303 300 299 297 296 294 295 295 296 298 298 298 298 297 296 295 294 291
327 328 328 326 325 324 322 319 315 311 308 307 305 302 300 298 297 296 297 301 296 295 296 298 297 296 296 296 296 294 293 291
326 327 326 326 325 323 323 322 319 313 309 307 302 299 297 297 296 297 300 295 293 293 296 297 297 296 296 295 295 295 295 294
326 325 325 326 326 325 324 324 320 315 311 308 305 301 299 298 296 300 299 300 293 293 294 296 297 297 296 295 295 295 295 294

GFSFLT2_925_thetae_033.txt.gz
Theta_e
335 331 326 322 322 314 315 315 320 319 317 315 314 314 314 314 315 317 319 319 319 317 317 317 316 315 314 313 313 312 318 318
330 329 324 318 317 321 318 318 321 319 314 314 314 314 315 315 315 317 318 320 319 319 318 317 316 315 314 313 313 312 317 319
322 320 317 319 322 319 321 319 320 316 315 314 313 317 316 316 317 318 319 320 320 318 318 316 315 313 313 313 312 311 315 317
318 317 317 317 318 316 319 320 314 314 315 314 315 315 315 316 318 319 321 319 318 317 316 314 314 313 312 311 310 309 310 313
317 315 315 314 312 312 314 314 314 314 314 314 315 315 316 318 320 321 319 317 316 314 313 313 311 310 309 308 307 307 306 307
316 315 315 316 316 315 316 316 314 315 315 316 315 316 318 321 321 317 317 316 315 314 312 310 309 308 308 307 306 305 304 304
320 319 318 317 319 316 314 315 314 315 319 322 321 321 319 321 320 317 316 315 314 312 311 310 309 308 307 306 304 302 302 302
320 319 319 323 323 318 315 315 315 319 322 323 323 323 323 323 319 317 316 314 311 311 310 309 308 306 304 302 300 299 300 300
322 323 325 325 322 318 315 316 319 321 324 326 325 325 323 321 318 316 313 312 312 310 308 307 306 303 301 300 300 300 301 301
323 325 327 328 322 318 317 323 326 327 326 325 323 322 320 318 317 314 312 311 309 308 307 306 303 301 301 300 300 299 299 299
324 326 328 329 323 320 320 327 328 327 326 325 325 322 320 318 316 312 310 308 308 307 305 301 300 301 301 300 299 298 297 298
325 325 328 329 324 320 324 327 327 326 325 324 323 321 319 315 312 310 308 308 307 303 301 299 299 302 300 300 298 297 296 296
326 327 327 329 326 322 324 326 322 321 320 320 321 319 314 312 310 308 308 307 304 302 299 299 301 299 301 300 298 296 296 295
328 328 329 329 326 322 323 324 321 319 318 318 316 314 312 311 309 308 307 304 301 298 297 301 300 299 301 300 301 299 297 295
328 329 329 328 326 325 325 323 319 315 313 314 314 312 310 309 309 308 305 301 297 296 296 297 300 299 299 300 300 300 299 297
329 329 329 328 326 324 324 321 318 315 312 311 311 310 309 308 307 304 300 297 295 296 296 297 299 300 299 298 298 299 299 299
328 328 327 327 326 324 321 320 318 316 312 310 309 308 308 307 303 300 298 295 299 301 297 298 297 299 299 299 298 297 296 297
328 328 327 326 325 323 321 320 318 315 312 309 308 306 304 302 300 298 296 302 300 296 296 295 297 297 298 297 297 297 296 295
328 328 327 327 327 323 322 320 319 316 314 310 307 303 301 300 299 296 299 300 297 298 295 296 296 298 297 297 296 296 295 295
328 327 326 320 321 323 320 319 319 318 317 312 310 306 301 298 297 297 299 299 297 295 294 294 295 297 296 296 296 296 295 295

GFSFLT2_925_thetae_036.txt.gz
Theta_e
334 330 329 328 326 325 320 320 318 324 321 322 322 320 320 318 318 317 317 316 316 316 316 316 316 314 313 313 313 316 319 319
331 329 326 324 324 324 323 321 322 322 318 320 320 318 317 318 320 320 319 318 317 317 316 316 315 314 313 313 313 316 318 318
328 325 319 314 315 322 325 321 324 320 318 318 317 320 319 321 321 319 319 319 319 317 316 315 314 314 313 313 315 315 315 316
321 318 315 316 319 324 327 327 325 323 322 320 322 323 321 322 322 319 320 320 318 317 315 314 316 316 313 312 313 313 313 313
319 316 316 315 313 315 325 325 322 322 319 322 323 323 320 324 322 320 318 317 315 315 315 315 315 314 313 312 311 310 310 310
316 316 315 315 316 322 319 318 317 314 314 317 318 322 324 323 322 321 319 318 317 316 315 314 313 312 311 311 310 309 308 307
315 315 316 317 313 314 312 311 316 315 317 320 321 322 325 323 321 320 319 317 317 316 314 313 312 311 310 309 307 306 305 305
315 315 313 313 317 316 314 318 319 321 323 324 325 324 324 322 321 319 318 318 317 316 314 312 311 310 308 306 304 303 304 305
318 318 320 320 320 322 320 321 321 321 326 327 327 326 324 322 321 319 318 316 315 313 312 311 310 307 305 304 303 303 304 304
321 321 323 325 325 322 319 322 322 324 327 327 326 324 323 321 320 318 316 315 314 312 311 310 307 305 304 303 303 302 302 303
321 323 325 327 327 323 322 324 325 327 327 327 324 322 321 320 319 317 315 314 312 311 309 307 305 304 303 303 302 302 301 301
323 325 327 329 327 324 322 326 328 329 328 327 324 322 320 320 318 315 313 312 311 310 308 305 303 303 302 303 302 301 301 301
325 326 328 330 327 323 323 326 327 328 328 326 324 321 319 318 316 314 312 312 310 309 306 304 304 303 305 306 303 302 301 300
326 328 329 330 327 324 325 327 327 327 325 323 322 319 318 316 314 313 312 311 309 307 304 305 305 304 306 304 307 304 302 300
326 328 330 331 329 325 325 327 325 323 321 320 318 317 316 314 313 312 311 309 307 305 304 305 307 304 303 302 305 306 303 301
327 328 330 331 330 326 325 324 326 323 321 319 316 314 314 313 312 311 309 307 305 303 305 306 305 306 303 301 301 301 301 302
329 329 330 331 330 328 327 326 327 325 320 317 315 313 312 311 309 307 306 305 303 304 305 304 305 301 302 303 301 300 300 300
330 330 330 331 330 327 326 326 327 323 319 317 314 313 311 307 306 305 305 303 304 306 303 304 300 301 301 300 299 300 300 299
331 331 330 330 329 325 324 326 326 321 319 316 312 308 307 308 305 305 304 303 305 303 303 300 301 300 300 300 299 298 297 297
333 332 330 328 326 326 326 326 325 322 321 313 310 311 309 307 304 304 303 303 302 302 299 300 300 300 300 299 298 298 297 297

GFSFLT2_925_thetae_042.txt.gz
Theta_e
335 336 336 333 329 327 325 324 327 329 328 326 324 322 321 320 319 318 318 316 316 316 315 315 315 314 316 318 319 320 321 320
332 330 332 330 329 328 327 327 328 329 326 324 324 321 317 315 316 317 316 316 316 316 316 315 315 314 316 316 316 317 319 320
327 328 326 325 325 328 328 327 325 327 323 322 320 318 317 320 316 316 316 316 317 317 317 316 316 314 314 314 314 315 317 320
330 330 326 327 324 323 325 324 327 325 322 321 321 322 326 322 317 316 317 317 317 317 318 317 317 316 315 314 313 312 314 317
328 328 325 325 326 322 317 324 326 321 321 325 322 324 324 319 320 319 318 317 317 317 317 319 318 316 314 313 312 310 310 312
321 322 320 316 320 322 323 323 322 321 325 323 322 323 319 319 320 320 320 319 318 319 319 318 316 314 313 311 309 308 307 310
317 318 320 322 322 323 321 320 321 323 323 322 321 322 322 320 322 322 321 321 320 320 319 317 315 314 312 309 307 307 307 308
316 315 316 317 318 320 318 319 319 319 316 314 317 321 325 324 325 323 323 322 321 320 318 316 314 313 310 307 306 306 307 307
314 313 314 315 315 313 313 314 314 313 313 318 322 322 325 326 324 324 323 322 321 320 318 314 313 311 308 307 306 306 306 306
316 316 313 313 314 312 312 312 313 314 314 321 318 322 326 325 326 324 323 322 320 319 316 314 313 310 308 307 307 306 306 305
317 316 313 313 313 314 313 316 320 320 318 318 324 322 327 326 325 324 323 321 320 318 315 314 311 309 309 308 308 307 306 304
315 313 313 314 314 316 320 321 319 317 315 323 325 326 328 327 326 324 322 321 319 317 315 312 311 310 310 308 308 308 306 304
316 314 314 317 319 323 323 321 322 322 323 327 328 326 327 326 325 323 322 321 318 317 313 311 308 310 310 311 310 309 306 305
321 319 321 320 322 319 322 320 320 321 324 326 327 327 326 325 325 323 322 320 318 315 313 312 310 311 311 311 311 308 307 306
321 322 323 324 325 324 323 322 321 324 325 325 327 327 326 325 325 323 321 319 317 314 313 311 311 311 310 310 309 308 307 306
322 323 324 325 326 328 324 323 324 326 327 327 326 327 327 325 323 322 319 318 316 314 312 310 311 312 311 310 309 306 305 303
325 324 325 326 326 328 328 324 326 326 327 326 327 326 326 324 322 320 318 317 315 315 313 310 312 311 310 309 309 307 306 304
328 328 328 328 329 328 329 325 327 328 327 327 327 325 323 322 319 317 318 316 315 311 309 310 310 309 310 306 306 305 305 305
328 329 329 329 330 330 328 329 328 327 326 326 326 325 321 320 319 317 317 316 313 309 309 309 309 309 306 306 304 303 303 303
329 329 329 329 330 331 329 327 328 328 327 326 326 324 321 320 319 317 316 314 312 308 310 310 308 306 304 304 303 303 303 302

GFSFLT2_925_thetae_045.txt.gz
Theta_e
336 336 337 336 333 325 324 322 325 326 327 329 331 332 330 328 326 319 316 316 316 315 316 315 315 318 318 318 317 321 319 313
335 335 335 334 329 326 324 327 326 325 326 326 328 328 326 323 320 316 316 316 316 316 316 315 316 316 315 315 318 319 318 314
328 328 329 326 324 324 325 325 323 324 324 322 320 321 320 319 318 316 316 316 317 317 317 314 314 314 314 314 314 320 319 314
327 328 326 325 322 321 329 327 325 324 322 319 317 318 316 316 317 316 316 317 317 317 316 315 317 315 314 312 312 316 314 311
328 326 324 323 324 318 315 326 324 321 320 322 325 324 317 316 317 317 318 318 317 316 317 318 316 314 313 312 309 310 311 309
327 326 325 324 318 314 323 326 323 322 324 323 325 322 319 319 318 319 319 318 317 316 318 317 314 313 312 308 309 307 309 308
325 326 326 321 320 322 323 324 321 324 323 322 323 318 317 318 319 319 320 319 318 319 319 316 314 313 310 307 306 307 307 309
321 321 324 324 320 323 323 322 322 323 322 322 322 319 318 321 321 322 321 320 319 320 318 315 314 312 308 306 306 307 307 307
316 317 320 322 321 321 320 320 320 318 315 317 320 323 325 324 325 323 322 322 321 320 318 315 312 311 308 307 306 306 306 306
317 319 319 320 317 315 315 316 317 315 315 314 316 322 325 325 324 324 323 322 321 320 317 314 313 310 308 307 306 306 306 305
315 316 318 316 316 317 316 315 316 314 314 316 321 320 324 325 324 324 323 322 321 320 318 314 313 310 309 308 307 307 306 305
315 315 314 315 315 314 313 314 314 313 314 314 316 323 317 321 325 323 323 322 321 319 317 314 312 310 309 309 308 308 306 305
314 314 313 313 313 312 313 313 312 313 317 318 319 322 323 325 325 325 323 322 320 319 316 314 310 309 309 310 309 308 307 305
314 313 313 313 314 313 314 316 319 320 319 321 321 318 323 325 324 324 323 323 320 318 317 312 312 309 310 311 308 308 307 306
314 313 313 314 315 317 321 323 321 321 321 320 319 322 325 325 325 325 323 323 321 318 316 313 312 310 310 311 306 305 306 307
315 314 315 316 319 322 321 322 320 320 320 320 321 322 326 326 325 325 324 322 320 318 315 313 312 311 310 310 309 307 303 302
319 320 318 321 322 322 322 323 322 320 320 323 324 325 325 326 325 324 323 321 319 317 314 314 313 311 311 310 309 308 306 304
319 321 321 322 323 324 326 327 322 323 324 325 326 326 327 327 325 323 322 320 318 316 315 314 311 312 311 310 308 307 306 305
320 321 322 323 324 326 325 325 326 323 324 326 326 325 326 325 324 323 320 319 318 316 314 312 310 311 310 310 306 304 304 303
323 323 322 323 325 324 325 325 326 326 326 326 326 325 324 322 323 322 320 318 317 316 312 310 309 309 309 307 306 303 303 303